Location: Asheville, NC
(35.6000°N, 82.5500°W)
Time: 23:50:31

FO-29 - Pass Details

Date: 16 March 2018
Orbit: 800 x 1321 km, 98.5° (Epoch: 19 March)

Event Time Altitude Azimuth Distance (km) Brightness Sun altitude
Rises 21:01:50 0° 15° (NNE) 4,096 12.7 -17.6°
Reaches altitude 10° 21:04:25 10° 17° (NNE) 3,186 12.1 -18.1°
Maximum altitude 21:11:53 73° 102° (ESE) 1,345 10.0 -19.6°
Drops below altitude 10° 21:19:43 10° 187° (S) 3,338 12.2 -21.2°
Sets 21:22:28 0° 189° (S) 4,301 12.8 -21.7°
